Flag for Germany Past Weather in Buchholz in der Nordheide, Lower Saxony, Germany — Yesterday and Last 2 Weeks

Now
55 °F

Drizzle. Fog.


Feels Like: 55 °F
Forecast: 52 / 71 °F
Wind: 2 mph from North

Location: Hamburg-Finkenwerder

Current Time: May 27, 2016 at 6:40:10 AM

Latest Report: May 27, 2016 at 5:50 AM


Visibility: 2 mi

Pressure: 30.04 "Hg

Humidity: 100%

Dew Point: 55 °F

Location of Buchholz in der NordheideLocation

Past Weather in Buchholz in der Nordheide — Graph

°F

Buchholz in der Nordheide Temperature Yesterday

Maximum temperature yesterday: 57 °F (at 12:20 PM)
Minimum temperature yesterday: 54 °F (at 5:50 AM)
Average temperature yesterday: 56 °F

High & Low Weather Summary for the Past Weeks

 TemperatureHumidityPressure
High75 °F (May 12, 1:50 PM)100% (May 12, 5:50 AM)30.04 "Hg (May 12, 5:50 AM)
Low45 °F (May 17, 5:50 AM)29% (May 19, 2:20 PM)29.59 "Hg (May 13, 5:20 PM)
Average60 °F76%29.85 "Hg
* Reported May 11 8:20 PM — May 26 8:20 PM, Buchholz in der Nordheide, Weather by CustomWeather, © 2016

Note: Actual official high and low records may vary slightly from our data, if they occured in-between our weather recording intervals... More about our weather records

Advertising

Buchholz in der Nordheide Weather History for the Previous 24 Hours

Scroll right to see more
 ConditionsComfort  
Time TempWeatherWind HumidityBarometerVisibility
8:20 PM
Thu, May 26
57 °FPartly sunny.6 mph100%30.04 "Hg6 mi
7:50 PM57 °FBroken clouds.7 mph100%30.04 "Hg6 mi
7:20 PM57 °FBroken clouds.8 mph100%30.04 "Hg6 mi
6:50 PM57 °FBroken clouds.7 mph100%30.04 "Hg6 mi
6:20 PM57 °FDrizzle. Broken clouds.7 mph100%30.04 "Hg6 mi
5:50 PM57 °FBroken clouds.9 mph100%30.04 "Hg4 mi
5:20 PM57 °FDrizzle. Broken clouds.8 mph100%30.04 "Hg2 mi
4:50 PM57 °FDrizzle. Broken clouds.8 mph100%30.04 "Hg2 mi
4:20 PM57 °FBroken clouds.8 mph100%30.04 "Hg5 mi
3:50 PM57 °FDrizzle. Broken clouds.8 mph100%30.04 "Hg4 mi
3:20 PM57 °FDrizzle. Broken clouds.8 mph100%30.04 "Hg4 mi
2:50 PM57 °FDrizzle. Broken clouds.8 mph100%30.04 "Hg4 mi
2:20 PM57 °FBroken clouds.8 mph100%30.04 "Hg6 mi
1:50 PM57 °FBroken clouds.7 mph100%30.04 "Hg6 mi
1:20 PM57 °FPartly sunny.9 mph100%30.04 "Hg6 mi
12:50 PM57 °FPartly sunny.7 mph100%30.01 "Hg6 mi
12:20 PM57 °FPartly sunny.8 mph100%30.01 "Hg6 mi
11:50 AM55 °FDrizzle. Partly sunny.8 mph100%30.01 "Hg4 mi
11:20 AM55 °FFog.8 mph100%30.01 "Hg2 mi
10:50 AM55 °FPartly sunny.8 mph100%30.01 "Hg5 mi
10:20 AM55 °FLow clouds.6 mph100%30.01 "Hg6 mi
9:50 AM55 °FPartly sunny.8 mph100%30.01 "Hg4 mi
9:20 AM55 °FPartly sunny.6 mph100%30.01 "Hg4 mi
8:50 AM55 °FDrizzle. Partly sunny.7 mph100%30.01 "Hg4 mi
8:20 AM55 °FDrizzle. Fog.7 mph100%30.01 "Hg3 mi
7:50 AM55 °FFog.8 mph100%29.98 "Hg2 mi
7:20 AM55 °FDrizzle. Fog.7 mph100%29.98 "Hg2 mi
6:50 AM55 °FDrizzle. Fog.7 mph100%29.98 "Hg1 mi
6:20 AM55 °FDrizzle. Fog.6 mph100%29.98 "Hg1 mi
Weather by CustomWeather, © 2016

See weather overviewHow to use our weather pages